Location: ????????
(37.6846°N, 24.0673°E)
Time: 14:38:35
(UTC+00:00)

MSX - Pass Details

Date: 14 July 2020
Orbit: 894 x 906 km, 98.8° (Epoch: 03 August)

Event Time Altitude Azimuth Distance (km) Brightness Sun altitude
Rises 02:01:05 0° 11° (NNE) 3,516 7.8 -12.6°
Reaches altitude 10° 02:03:29 10° 11° (N) 2,573 7.0 -12.3°
Maximum altitude 02:09:13 80° 285° (WNW) 913 3.8 -11.4°
Drops below altitude 10° 02:14:56 10° 199° (SSW) 2,562 5.7 -10.5°
Enters shadow 02:15:28 - 199° (SSW) 2,774 5.9 -10.4°
